CZ-6A DEB, 54305

Orbit data source: Space-Track

CZ-6A DEB, 54305 is space debris in SSO originally from a launch on Fri, 11 Nov 2022 UTC launched from the Taiyaun Space Center, China (TSC). Debris objects in space refer to the collection of defunct objects orbiting the Earth. Examples of debris include non-operational satellites, rocket bodies, and fragments generated from explosions, collisions, or faulty payload assembly.

Loading next visibility...
Identifier
54305, 2022-151AY
Orbit
SSO
Country
Flag of CNCN / PRC
Related business
Manufacturer
SAST
Mission
Spacecraft
Bus & Motor
Unknown
Mass
Unknown
Launch date (UTC)
2022-11-11 (4 years ago)
Launch vehicle
Unknown
Launch site
Taiyaun Space Center, China (TSC)
Object type
Payload
Rocket body
Debris
Shape & HBR
Unknown shape, 0.1 m
Radar Cross Section
Medium (>0.1 m² and <1 m²)

Expand to show TLE details & history
Last TLE update: 2 days ago

TLE from 2 days ago
0 CZ-6A DEB
1 54305U 22151AY  26171.29119791  .00000194  00000-0  10145-3 0  9992
2 54305  98.7516 197.7553 0053312 342.2326  17.6988 14.24637808186746
Epoch: 2026-06-20T06:59Z
TLE epoch observation values (Epoch: 2026-06-20T06:59:19.499Z)
Latitude
0.00004°
Longitude
-175.58388°
Altitude
776.136 km
Speed
7.485 km/s
True Right ascension
13h 11m 01s
True Declination
0° 00' 00"
Sunlit
Object was in daylight at epoch
Visualization orbit readout
Latitude
Unknown
Longitude
Unknown
Altitude
Unknown
Speed
Unknown
Apparent Right ascension
Unknown
Apparent Declination
Unknown
Sunlit
N/A
Visualization observer readout
Local Sidereal Time
21:33:26
Azimuth
Unknown
Elevation
Unknown
Doppler factor
Unknown
Orbital elements
Apogee altitude
845.17 km
Perigee altitude
768.56 km
Semi-major axis
7,185.002 km
Eccentricity
0.00533
Inclination
98.7516°
RAAN
197.7553°
Arg. of periapsis
342.2326°
True anomaly
17.88571°
Mean anomaly
17.6988°
Eccentric anomaly
17.79214°
Mean motion
3.56371 °/min
Orbital period
101.02 mins
BSTAR
0.00010145
Loading maneuver chart data...
Computing Atmospheric mass density...
Loading historical data...
Loading historical data...
Loading historical data...
Loading historical data...
Loading historical data...
Loading historical data...
Loading historical data...

Documentation

Showing up to 5 results
|